SCP
-0 -0 -0 -0 -0 -0 -0 -0 -0 -0 -0 -0 0 0 0 0 -0 -0 -0 -0 -0 -0 -0 -0 -0 -0 0 0 0 0 0 0 0 0 0 -0 -0 -0 0 0 0 0 -0 -0 -0 0 0
-0 -0 -0 -0 -0 -0 -0 -0 0 0 0 0 0 0 0 0 0 0 -0 -0 -0 -0 -0 -0 -0 -0 0 -0 0 -0 -0 0 -0 0 0 -0 0 -0 -0 0 -0 -0 -0 -0 -0 -0 -0
-0 -0 -0 -0 -0 -0 -0 -0 -0 0 0 0 0 0 0 0 0 0 0 0 -0 -0 -0 0 0 0 0 0 0 0 0 0 0 -0 0 -0 -0 -0 0 0 0 -0 0 -0 0 -0 0
-0 -0 -0 -0 -0 -0 -0 -0 -0 -0 -0 -0 -0 -0 0 -0 0 0 0 0 0 0 0 0 0 0 -0 0 0 0 -0 0 -0 0 -0 -0 -0 -0 -0 -0 -0 -0 -0 0 0 -0 0
-0 -0 -0 -0 -0 -0 -0 -0 -0 -0 -0 -0 -0 -0 -0 -0 -0 -0 -0 -0 -0 0 0 0 0 0 0 0 0 0 -0 0 0 -0 -0 -0 -0 0 -0 -0 0 0 0 -0 -0 -0 0
-0 -0 -0 -0 -0 -0 -0 -0 -0 -0 -0 -0 -0 -0 -0 -0 -0 -0 -0 -0 -0 0 0 0 0 0 0 -0 0 0 0 -0 0 0 0 0 -0 0 0 -0 0 0 0 0 -0 -0 0
-0 -0 -0 -0 -0 -0 -0 -0 -0 -0 -0 -0 -0 -0 -0 -0 -0 -0 -0 0 0 0 0 0 0 0 0 -0 0 0 0 0 0 0 0 0 0 0 -0 -0 -0 0 0 -0 0 -0 -0
-0 -0 -0 -0 -0 -0 -0 -0 -0 -0 -0 -0 -0 -0 -0 -0 -0 -0 0 0 0 0 0 -0 -0 0 0 0 0 0 0 0 0 0 0 0 0 0 -0 -0 -0 0 0 0 0 0 -0
-0 -0 -0 -0 -0 -0 -0 -0 -0 -0 -0 -0 -0 -0 -0 -0 -0 0 0 -0 -0 -0 -0 -0 -0 -0 0 0 0 0 0 0 0 0 0 0 0 0 -0 -0 0 0 0 0 0 -0 0
-0 -0 -0 -0 -0 -0 -0 -0 -0 -0 -0 -0 -0 -0 -0 -0 0 0 -0 -0 -0 -0 0 0 -0 0 0 0 0 -0 0 0 0 0 0 0 -0 0 0 0 0 0 0 0 0 -0 0
-0 -0 -0 -0 -0 -0 -0 -0 -0 -0 -0 -0 -0 -0 -0 0 0 0 -0 -0 -0 0 -0 -0 -0 0 0 -0 -0 -0 0 0 -0 -0 0 0 0 0 0 0 0 -0 0 0 0 0 -0
-0 -0 -0 -0 -0 -0 -0 -0 -0 -0 -0 -0 -0 -0 -0 -0 0 -0 -0 -0 0 0 0 0 0 -0 -0 -0 -0 0 0 0 0 0 0 0 0 0 0 0 0 0 0 0 0 0 0
-0 -0 -0 -0 -0 -0 -0 -0 -0 -0 -0 -0 -0 -0 0 0 0 -0 -0 0 0 0 0 0 0 0 0 0 0 0 -0 -0 0 0 0 -0 0 -0 0 0 0 0 0 0 0 0 0
-0 -0 -0 -0 -0 -0 -0 -0 -0 -0 -0 -0 -0 -0 -0 0 -0 -0 0 0 -0 0 0 0 0 0 0 0 -0 0 0 0 -0 -0 0 0 -0 0 0 0 0 -0 0 -0 0 0 -0
-0 -0 -0 -0 -0 -0 -0 -0 -0 -0 -0 -0 -0 0 0 0 -0 -0 0 0 -0 -0 -0 -0 -0 0 0 0 -0 0 0 0 0 0 0 0 0 0 -0 0 0 0 0 0 0 0 0
-0 -0 -0 -0 -0 -0 -0 -0 -0 -0 -0 -0 0 0 0 -0 -0 -0 0 -0 0 -0 -0 -0 -0 -0 -0 0 -0 -0 0 0 0 0 0 0 0 0 0 0 0 0 0 0 0 0 0
-0 -0 -0 -0 -0 -0 -0 -0 -0 -0 -0 -0 0 0 0 -0 0 0 0 0 -0 -0 -0 -0 -0 0 0 0 0 -0 0 0 0 0 0 0 0 0 0 0 0 0 0 0 0 0 0
-0 -0 -0 -0 -0 -0 -0 -0 -0 -0 -0 -0 -0 0 0 0 0 0 0 0 0 0 0 0 -0 0 0 0 -0 -0 0 0 0 0 0 0 0 0 0 0 0 0 0 0 0 0 0
-0 -0 -0 -0 -0 -0 -0 -0 -0 -0 0 -0 -0 0 0 -0 0 -0 0 0 0 0 -0 0 0 0 -0 0 0 0 0 0 0 0 0 0 0 0 0 0 0 0 0 0 0 0 0
-0 -0 -0 -0 -0 -0 -0 -0 -0 -0 -0 0 0 0 0 -0 0 -0 0 0 0 0 0 0 0 0 0 0 0 0 0 0 0 0 0 0 -0 -0 0 0 0 0 0 0 0 0 0
0 0 0 -0 -0 -0 -0 -0 -0 -0 -0 0 0 0 0 0 0 0 0 0 0 0 0 0 0 -0 0 0 0 0 0 0 0 -0 0 0 0 0 0 0 0 0 0 0 0 0 0
0 0 0 0 0 0 -0 -0 -0 -0 -0 -0 0 0 0 0 0 0 0 0 0 0 0 0 0 0 0 0 0 0 0 0 0 0 0 0 -0 0 0 0 0 0 0 0 0 0 0
0 0 0 0 0 0 0 0 0 -0 -0 0 0 0 0 0 0 0 0 0 0 0 0 0 0 0 0 0 0 0 0 -0 -0 -0 -0 0 0 0 -0 0 0 -0 0 0 0 0 -0
0 0 0 0 0 0 0 0 0 0 0 0 0 0 0 0 0 0 0 0 0 0 0 0 0 0 0 0 0 0 0 0 0 0 0 0 0 0 0 0 0 -0 0 -0 0 0 0
0 0 0 0 0 0 0 0 0 0 0 0 0 0 0 0 0 0 0 0 0 0 0 0 0 0 0 0 0 0 0 0 0 0 0 0 0 0 0 0 0 0 0 0 0 0 -0
0 0 0 0 0 0 0 0 0 0 0 0 0 0 0 0 0 0 0 0 0 0 0 0 0 0 0 0 0 0 0 0 0 0 0 0 0 0 0 0 0 0 0 0 0 0 0
0 0 0 0 0 0 0 0 0 0 0 0 0 0 0 0 0 0 0 0 0 0 0 0 0 0 0 0 0 0 0 0 0 0 0 0 0 0 0 0 0 0 0 0 0 1 0
0 0 0 0 0 0 0 0 0 0 0 0 0 0 0 0 0 0 0 0 0 0 0 0 0 0 0 0 0 0 0 0 0 0 0 0 0 0 0 0 0 0 0 0 0 0 0
0 0 0 0 0 0 0 0 0 0 0 0 0 0 0 0 0 -0 0 0 0 0 0 0 0 0 0 0 0 0 0 0 0 0 0 0 0 0 0 0 0 -0 0 0 0 0 0
Wind_Speed_500mb
24 24 25 25 26 27 28 28 29 29 28 27 28 30 29 28 27 27 24 24 25 26 25 25 25 25 23 15 33 32 21 15 25 27 24 20 44 46 2 12 19 19 27 35 61 13 25
26 26 26 26 27 28 29 29 30 30 31 31 31 30 30 30 28 27 26 23 21 23 24 25 23 24 22 13 7 19 27 18 20 30 25 23 34 54 36 17 25 34 25 38 62 64 21
27 28 29 30 30 31 31 31 32 33 33 34 33 32 30 29 28 25 24 22 20 19 21 22 21 21 27 41 1 18 24 19 16 25 30 32 45 49 35 11 47 41 6 25 27 39 8
29 30 31 31 32 33 34 35 35 36 36 36 35 34 31 27 25 23 21 19 19 16 15 16 16 17 22 19 24 21 28 29 26 29 30 30 37 37 19 57 19 20 7 12 9 11 10
31 32 33 34 36 36 37 37 37 38 39 39 36 32 28 24 21 19 16 17 15 13 9 11 8 11 24 17 30 33 33 35 29 36 39 30 35 33 20 26 8 5 8 2 22 16 17
33 34 35 37 38 38 38 40 41 42 42 39 35 29 24 20 17 13 11 16 14 10 7 10 14 15 30 36 31 25 29 28 31 35 42 41 33 13 12 9 11 16 10 4 16 13 19
34 36 38 39 41 41 42 42 43 43 41 38 34 27 21 15 11 5 7 12 13 3 16 22 18 29 18 20 8 3 14 21 26 29 14 37 8 15 26 15 35 25 24 35 47 45 35
36 38 40 41 42 43 44 44 45 42 39 38 33 26 18 11 4 5 15 15 19 15 19 34 39 45 33 20 11 26 31 28 25 14 17 15 15 23 28 37 41 33 21 14 29 53 33
37 39 41 42 43 43 43 44 44 40 38 36 32 23 14 7 7 5 12 11 19 22 9 23 36 30 33 31 36 47 33 41 20 15 19 17 23 27 29 27 31 19 20 22 26 47 15
38 40 42 43 45 45 46 45 44 38 37 36 30 21 10 6 7 12 18 15 18 11 6 8 18 13 15 9 18 48 41 40 14 23 22 16 29 31 30 22 18 20 41 17 16 6 3
38 41 43 45 47 47 47 46 44 37 33 32 26 18 9 9 6 14 19 17 23 8 4 20 13 22 12 21 27 12 24 3 14 20 9 23 18 18 22 23 18 15 16 12 16 17 11
40 42 44 47 50 50 50 48 44 37 30 28 25 18 9 5 1 19 22 20 13 3 4 11 17 17 15 26 26 11 12 16 34 16 24 21 51 14 13 12 12 19 17 21 15 5 9
41 42 45 48 50 52 51 50 46 38 28 25 22 18 11 11 9 10 21 21 4 6 6 12 1 13 22 15 18 17 18 13 9 6 13 18 27 20 16 13 16 14 13 9 10 9 14
42 42 45 48 51 54 54 51 47 40 31 24 23 18 11 4 7 12 20 8 7 17 16 3 4 15 5 6 9 16 12 10 19 18 12 11 18 10 16 18 19 15 8 9 9 8 13
43 43 44 48 51 54 56 53 48 41 35 26 23 20 17 2 8 8 15 5 4 17 22 18 23 13 8 7 3 9 8 10 14 14 7 12 18 27 26 10 22 13 6 15 5 11 8
45 44 45 47 50 54 57 57 51 40 35 33 32 25 20 2 5 8 5 9 6 14 15 24 17 16 15 9 7 18 11 13 15 22 19 15 17 17 21 19 14 5 8 12 8 7 13
45 46 46 46 49 52 56 58 56 44 34 31 25 16 4 8 12 21 7 5 8 19 15 13 19 16 16 15 17 20 14 22 21 21 25 18 12 21 16 10 13 10 4 7 8 10 7
44 47 48 47 47 50 52 54 57 50 39 26 17 6 9 8 13 13 5 4 6 10 8 6 9 14 15 19 17 18 13 10 23 18 9 16 8 11 22 12 24 12 19 4 10 18 9
44 45 47 47 48 49 50 50 50 50 44 45 30 18 7 5 6 10 6 6 4 14 19 17 16 15 18 13 10 15 22 17 27 9 7 11 9 10 24 17 29 14 18 16 10 7 7
46 47 46 46 47 49 50 49 45 37 38 39 14 7 8 8 15 16 18 14 4 13 6 10 15 19 13 14 15 10 8 10 13 22 20 10 6 11 11 19 13 18 26 20 11 7 12
43 45 46 44 45 47 50 50 46 29 27 29 12 9 20 9 18 16 18 18 21 11 9 10 4 15 11 11 18 18 26 20 29 11 4 6 9 13 18 18 19 22 27 25 17 15 7
40 42 44 44 44 44 46 49 49 41 19 26 18 17 25 31 35 17 10 8 17 16 15 16 17 26 16 10 9 14 17 16 9 17 17 17 12 13 12 17 21 24 20 18 18 15 16
38 39 40 41 41 42 42 44 48 47 33 17 39 17 11 24 18 18 10 17 19 18 12 26 24 13 14 17 28 26 34 42 31 19 14 11 9 10 11 17 19 15 17 19 18 15 11
36 37 37 37 38 38 38 38 39 40 39 28 33 19 12 10 16 20 24 16 16 18 11 27 33 15 20 22 33 36 45 48 45 36 36 15 9 6 11 10 13 19 18 19 20 13 14
36 36 36 35 33 36 37 34 33 31 30 22 30 25 12 9 30 28 32 27 35 37 23 28 35 28 7 15 10 12 10 13 22 38 27 23 13 6 8 10 15 17 17 20 8 11 14
39 36 35 34 32 31 33 35 32 31 26 15 18 28 13 16 8 38 23 25 10 14 12 28 46 10 5 0 3 8 6 14 11 15 6 15 18 11 4 8 13 15 28 38 13 1 13
45 40 36 32 31 30 29 30 33 29 25 22 14 34 20 15 19 35 15 17 17 20 8 32 33 24 17 2 6 9 16 16 13 14 14 8 4 6 8 9 10 11 22 34 5 10 22
51 45 42 37 33 29 28 27 26 29 25 18 8 18 27 13 52 11 17 27 29 25 7 32 20 16 11 4 7 6 8 8 10 11 11 2 3 6 4 5 10 35 19 11 13 27 41
55 50 46 44 41 37 31 28 26 24 26 24 18 19 14 20 32 47 52 44 42 33 37 21 24 29 10 7 8 6 9 7 9 8 14 7 6 4 5 7 20 44 38 28 20 17 29
Wind_Direction_500mb
18 15 11 7 2 359 355 351 347 342 337 331 323 318 313 308 303 298 292 286 285 286 288 288 294 302 314 302 261 294 279 256 262 271 279 294 290 306 75 127 340 26 45 4 26 304 121
20 15 11 7 4 360 355 350 347 342 337 332 326 320 315 310 305 300 296 292 286 283 284 284 287 297 304 263 240 285 282 266 270 265 266 278 280 306 85 73 70 336 74 71 19 309 40
18 13 9 6 3 358 354 350 347 343 338 333 328 322 316 310 306 301 296 294 289 282 280 279 283 287 279 251 118 297 303 295 288 268 274 289 298 328 338 71 44 354 334 100 185 250 279
17 12 8 4 359 356 353 350 346 342 338 333 329 324 318 312 307 300 297 296 293 289 279 274 272 283 266 271 288 239 259 263 266 277 278 291 295 300 27 116 94 294 331 9 252 302 276
14 10 7 3 359 356 353 351 347 344 340 335 331 326 320 315 308 303 302 297 289 284 272 261 251 279 273 276 239 239 248 258 257 260 257 263 277 282 243 120 80 287 297 184 297 219 217
12 9 5 2 359 356 353 351 349 346 342 339 335 331 326 320 316 318 311 302 284 268 260 265 206 295 258 238 255 246 250 243 259 276 278 246 251 268 276 176 176 215 328 147 259 283 223
11 8 4 2 359 356 354 352 351 349 348 347 346 341 334 331 339 355 17 335 345 105 227 219 211 216 304 268 294 261 219 273 256 263 287 288 216 243 257 271 155 123 106 307 312 290 271
10 7 4 1 358 356 353 352 352 352 353 352 350 349 347 355 35 68 9 12 17 329 296 275 258 251 270 305 324 280 246 246 263 233 256 295 266 254 262 272 141 144 175 191 209 263 261
9 6 4 1 359 356 354 353 353 354 355 354 354 357 5 40 97 44 4 20 349 338 270 286 225 240 252 239 250 267 227 224 240 271 242 232 256 269 268 272 153 188 203 248 212 239 253
10 7 5 2 360 358 356 354 354 354 355 356 357 1 13 78 14 339 294 1 324 333 304 210 189 240 174 218 279 242 245 240 240 244 262 235 249 266 279 279 259 223 222 287 320 23 272
10 8 6 4 2 360 358 355 354 353 354 357 357 2 358 334 356 10 353 341 327 318 314 169 182 163 232 185 285 225 245 277 253 267 276 265 273 262 272 274 292 277 298 331 326 330 16
10 9 7 6 4 2 359 356 353 351 347 348 353 353 345 289 286 7 343 322 313 327 254 144 154 188 200 223 256 166 187 236 281 306 295 263 286 269 259 306 353 341 353 337 322 352 339
9 8 8 6 5 3 0 357 354 348 341 340 336 335 327 290 300 4 338 314 309 226 169 43 147 177 199 191 223 175 185 214 185 304 267 281 269 271 277 309 338 346 351 328 334 340 233
8 6 6 6 5 4 2 359 355 349 338 332 323 319 288 321 9 21 327 311 268 16 39 156 260 285 342 60 287 198 226 214 217 215 264 249 311 289 289 187 203 245 188 161 287 275 268
6 5 4 4 4 4 2 359 357 351 337 332 321 307 304 101 28 34 286 290 327 1 354 337 325 258 198 137 217 237 239 109 83 69 45 9 322 330 325 291 168 252 281 237 300 290 7
5 4 2 2 2 2 2 359 359 354 338 332 338 317 303 332 306 300 282 274 28 2 347 323 327 4 2 37 327 357 91 28 64 42 20 325 338 313 307 351 351 118 234 358 352 2 325
2 2 2 1 1 1 1 359 358 357 344 335 347 325 103 132 216 234 247 281 6 78 354 338 352 344 2 16 357 346 67 38 42 23 1 6 16 305 342 325 318 318 270 239 166 149 198
1 1 1 360 359 359 360 360 357 356 357 340 350 292 171 205 280 249 215 102 347 1 135 297 313 339 4 359 351 354 30 87 65 35 27 10 275 326 296 347 19 31 11 36 112 291 230
1 360 359 360 359 358 357 359 359 354 356 353 336 273 180 220 281 321 129 160 195 4 5 360 360 18 7 344 353 337 340 131 103 91 103 18 342 350 335 341 2 7 334 324 340 46 285
359 360 358 359 359 359 358 357 357 357 348 346 335 306 19 267 287 1 2 355 77 133 248 39 347 334 323 348 343 312 316 333 142 108 119 114 253 217 248 269 299 333 330 331 342 10 306
352 357 359 357 359 2 1 360 0 0 0 5 352 356 7 332 341 353 342 339 328 326 102 60 262 309 14 27 344 348 359 347 1 133 316 138 252 271 283 315 329 319 310 310 311 289 313
346 351 355 356 357 1 4 4 5 8 13 26 18 356 337 305 310 311 263 309 305 28 29 357 345 350 18 32 53 329 350 348 301 337 347 332 311 334 327 321 314 311 308 297 290 291 297
339 342 348 353 355 358 3 7 8 13 25 57 3 336 322 293 308 303 20 9 354 16 348 342 12 8 340 350 353 331 303 287 273 275 280 287 294 338 294 312 314 324 292 306 295 311 325
332 334 338 343 352 356 358 3 9 15 22 25 11 358 307 299 321 339 358 331 335 0 345 322 319 319 305 330 324 302 280 267 253 245 231 234 243 219 251 293 285 253 276 293 293 317 41
325 327 330 333 339 351 356 357 0 8 10 8 21 10 337 304 319 345 354 353 347 328 291 266 266 259 298 331 324 313 298 277 259 243 210 212 197 225 202 232 265 299 281 336 333 1 87
301 313 320 323 327 336 346 355 354 356 5 16 33 3 353 308 9 335 341 353 355 342 335 338 3 299 51 334 269 252 280 290 301 322 240 241 192 149 251 228 254 261 291 295 285 245 98
288 290 302 309 317 325 332 341 352 350 357 4 27 8 358 296 260 353 328 313 311 327 300 313 353 334 297 287 284 270 276 289 286 290 285 307 339 210 255 264 295 321 359 338 47 329 11
282 277 280 288 299 308 318 329 337 348 347 358 42 23 356 304 294 291 324 323 320 321 317 325 343 8 304 338 246 290 276 291 319 333 327 307 312 263 306 330 295 12 22 80 215 340 346
273 273 275 274 280 290 300 314 325 332 346 340 327 317 313 284 265 283 285 276 260 263 274 274 293 324 309 356 340 334 327 295 309 291 339 360 84 270 323 264 342 14 3 1 10 35 23
Wind_Speed_850mb
24 24 25 25 26 27 28 28 29 29 28 27 28 30 29 28 27 27 24 24 25 26 25 25 25 25 23 15 33 32 21 15 25 27 24 20 44 46 2 12 19 19 27 35 61 13 25
26 26 26 26 27 28 29 29 30 30 31 31 31 30 30 30 28 27 26 23 21 23 24 25 23 24 22 13 7 19 27 18 20 30 25 23 34 54 36 17 25 34 25 38 62 64 21
27 28 29 30 30 31 31 31 32 33 33 34 33 32 30 29 28 25 24 22 20 19 21 22 21 21 27 41 1 18 24 19 16 25 30 32 45 49 35 11 47 41 6 25 27 39 8
29 30 31 31 32 33 34 35 35 36 36 36 35 34 31 27 25 23 21 19 19 16 15 16 16 17 22 19 24 21 28 29 26 29 30 30 37 37 19 57 19 20 7 12 9 11 10
31 32 33 34 36 36 37 37 37 38 39 39 36 32 28 24 21 19 16 17 15 13 9 11 8 11 24 17 30 33 33 35 29 36 39 30 35 33 20 26 8 5 8 2 22 16 17
33 34 35 37 38 38 38 40 41 42 42 39 35 29 24 20 17 13 11 16 14 10 7 10 14 15 30 36 31 25 29 28 31 35 42 41 33 13 12 9 11 16 10 4 16 13 19
34 36 38 39 41 41 42 42 43 43 41 38 34 27 21 15 11 5 7 12 13 3 16 22 18 29 18 20 8 3 14 21 26 29 14 37 8 15 26 15 35 25 24 35 47 45 35
36 38 40 41 42 43 44 44 45 42 39 38 33 26 18 11 4 5 15 15 19 15 19 34 39 45 33 20 11 26 31 28 25 14 17 15 15 23 28 37 41 33 21 14 29 53 33
37 39 41 42 43 43 43 44 44 40 38 36 32 23 14 7 7 5 12 11 19 22 9 23 36 30 33 31 36 47 33 41 20 15 19 17 23 27 29 27 31 19 20 22 26 47 15
38 40 42 43 45 45 46 45 44 38 37 36 30 21 10 6 7 12 18 15 18 11 6 8 18 13 15 9 18 48 41 40 14 23 22 16 29 31 30 22 18 20 41 17 16 6 3
38 41 43 45 47 47 47 46 44 37 33 32 26 18 9 9 6 14 19 17 23 8 4 20 13 22 12 21 27 12 24 3 14 20 9 23 18 18 22 23 18 15 16 12 16 17 11
40 42 44 47 50 50 50 48 44 37 30 28 25 18 9 5 1 19 22 20 13 3 4 11 17 17 15 26 26 11 12 16 34 16 24 21 51 14 13 12 12 19 17 21 15 5 9
41 42 45 48 50 52 51 50 46 38 28 25 22 18 11 11 9 10 21 21 4 6 6 12 1 13 22 15 18 17 18 13 9 6 13 18 27 20 16 13 16 14 13 9 10 9 14
42 42 45 48 51 54 54 51 47 40 31 24 23 18 11 4 7 12 20 8 7 17 16 3 4 15 5 6 9 16 12 10 19 18 12 11 18 10 16 18 19 15 8 9 9 8 13
43 43 44 48 51 54 56 53 48 41 35 26 23 20 17 2 8 8 15 5 4 17 22 18 23 13 8 7 3 9 8 10 14 14 7 12 18 27 26 10 22 13 6 15 5 11 8
45 44 45 47 50 54 57 57 51 40 35 33 32 25 20 2 5 8 5 9 6 14 15 24 17 16 15 9 7 18 11 13 15 22 19 15 17 17 21 19 14 5 8 12 8 7 13
45 46 46 46 49 52 56 58 56 44 34 31 25 16 4 8 12 21 7 5 8 19 15 13 19 16 16 15 17 20 14 22 21 21 25 18 12 21 16 10 13 10 4 7 8 10 7
44 47 48 47 47 50 52 54 57 50 39 26 17 6 9 8 13 13 5 4 6 10 8 6 9 14 15 19 17 18 13 10 23 18 9 16 8 11 22 12 24 12 19 4 10 18 9
44 45 47 47 48 49 50 50 50 50 44 45 30 18 7 5 6 10 6 6 4 14 19 17 16 15 18 13 10 15 22 17 27 9 7 11 9 10 24 17 29 14 18 16 10 7 7
46 47 46 46 47 49 50 49 45 37 38 39 14 7 8 8 15 16 18 14 4 13 6 10 15 19 13 14 15 10 8 10 13 22 20 10 6 11 11 19 13 18 26 20 11 7 12
43 45 46 44 45 47 50 50 46 29 27 29 12 9 20 9 18 16 18 18 21 11 9 10 4 15 11 11 18 18 26 20 29 11 4 6 9 13 18 18 19 22 27 25 17 15 7
40 42 44 44 44 44 46 49 49 41 19 26 18 17 25 31 35 17 10 8 17 16 15 16 17 26 16 10 9 14 17 16 9 17 17 17 12 13 12 17 21 24 20 18 18 15 16
38 39 40 41 41 42 42 44 48 47 33 17 39 17 11 24 18 18 10 17 19 18 12 26 24 13 14 17 28 26 34 42 31 19 14 11 9 10 11 17 19 15 17 19 18 15 11
36 37 37 37 38 38 38 38 39 40 39 28 33 19 12 10 16 20 24 16 16 18 11 27 33 15 20 22 33 36 45 48 45 36 36 15 9 6 11 10 13 19 18 19 20 13 14
36 36 36 35 33 36 37 34 33 31 30 22 30 25 12 9 30 28 32 27 35 37 23 28 35 28 7 15 10 12 10 13 22 38 27 23 13 6 8 10 15 17 17 20 8 11 14
39 36 35 34 32 31 33 35 32 31 26 15 18 28 13 16 8 38 23 25 10 14 12 28 46 10 5 0 3 8 6 14 11 15 6 15 18 11 4 8 13 15 28 38 13 1 13
45 40 36 32 31 30 29 30 33 29 25 22 14 34 20 15 19 35 15 17 17 20 8 32 33 24 17 2 6 9 16 16 13 14 14 8 4 6 8 9 10 11 22 34 5 10 22
51 45 42 37 33 29 28 27 26 29 25 18 8 18 27 13 52 11 17 27 29 25 7 32 20 16 11 4 7 6 8 8 10 11 11 2 3 6 4 5 10 35 19 11 13 27 41
55 50 46 44 41 37 31 28 26 24 26 24 18 19 14 20 32 47 52 44 42 33 37 21 24 29 10 7 8 6 9 7 9 8 14 7 6 4 5 7 20 44 38 28 20 17 29
Wind_Direction_850mb
18 15 11 7 2 359 355 351 347 342 337 331 323 318 313 308 303 298 292 286 285 286 288 288 294 302 314 302 261 294 279 256 262 271 279 294 290 306 75 127 340 26 45 4 26 304 121
20 15 11 7 4 360 355 350 347 342 337 332 326 320 315 310 305 300 296 292 286 283 284 284 287 297 304 263 240 285 282 266 270 265 266 278 280 306 85 73 70 336 74 71 19 309 40
18 13 9 6 3 358 354 350 347 343 338 333 328 322 316 310 306 301 296 294 289 282 280 279 283 287 279 251 118 297 303 295 288 268 274 289 298 328 338 71 44 354 334 100 185 250 279
17 12 8 4 359 356 353 350 346 342 338 333 329 324 318 312 307 300 297 296 293 289 279 274 272 283 266 271 288 239 259 263 266 277 278 291 295 300 27 116 94 294 331 9 252 302 276
14 10 7 3 359 356 353 351 347 344 340 335 331 326 320 315 308 303 302 297 289 284 272 261 251 279 273 276 239 239 248 258 257 260 257 263 277 282 243 120 80 287 297 184 297 219 217
12 9 5 2 359 356 353 351 349 346 342 339 335 331 326 320 316 318 311 302 284 268 260 265 206 295 258 238 255 246 250 243 259 276 278 246 251 268 276 176 176 215 328 147 259 283 223
11 8 4 2 359 356 354 352 351 349 348 347 346 341 334 331 339 355 17 335 345 105 227 219 211 216 304 268 294 261 219 273 256 263 287 288 216 243 257 271 155 123 106 307 312 290 271
10 7 4 1 358 356 353 352 352 352 353 352 350 349 347 355 35 68 9 12 17 329 296 275 258 251 270 305 324 280 246 246 263 233 256 295 266 254 262 272 141 144 175 191 209 263 261
9 6 4 1 359 356 354 353 353 354 355 354 354 357 5 40 97 44 4 20 349 338 270 286 225 240 252 239 250 267 227 224 240 271 242 232 256 269 268 272 153 188 203 248 212 239 253
10 7 5 2 360 358 356 354 354 354 355 356 357 1 13 78 14 339 294 1 324 333 304 210 189 240 174 218 279 242 245 240 240 244 262 235 249 266 279 279 259 223 222 287 320 23 272
10 8 6 4 2 360 358 355 354 353 354 357 357 2 358 334 356 10 353 341 327 318 314 169 182 163 232 185 285 225 245 277 253 267 276 265 273 262 272 274 292 277 298 331 326 330 16
10 9 7 6 4 2 359 356 353 351 347 348 353 353 345 289 286 7 343 322 313 327 254 144 154 188 200 223 256 166 187 236 281 306 295 263 286 269 259 306 353 341 353 337 322 352 339
9 8 8 6 5 3 0 357 354 348 341 340 336 335 327 290 300 4 338 314 309 226 169 43 147 177 199 191 223 175 185 214 185 304 267 281 269 271 277 309 338 346 351 328 334 340 233
8 6 6 6 5 4 2 359 355 349 338 332 323 319 288 321 9 21 327 311 268 16 39 156 260 285 342 60 287 198 226 214 217 215 264 249 311 289 289 187 203 245 188 161 287 275 268
6 5 4 4 4 4 2 359 357 351 337 332 321 307 304 101 28 34 286 290 327 1 354 337 325 258 198 137 217 237 239 109 83 69 45 9 322 330 325 291 168 252 281 237 300 290 7
5 4 2 2 2 2 2 359 359 354 338 332 338 317 303 332 306 300 282 274 28 2 347 323 327 4 2 37 327 357 91 28 64 42 20 325 338 313 307 351 351 118 234 358 352 2 325
2 2 2 1 1 1 1 359 358 357 344 335 347 325 103 132 216 234 247 281 6 78 354 338 352 344 2 16 357 346 67 38 42 23 1 6 16 305 342 325 318 318 270 239 166 149 198
1 1 1 360 359 359 360 360 357 356 357 340 350 292 171 205 280 249 215 102 347 1 135 297 313 339 4 359 351 354 30 87 65 35 27 10 275 326 296 347 19 31 11 36 112 291 230
1 360 359 360 359 358 357 359 359 354 356 353 336 273 180 220 281 321 129 160 195 4 5 360 360 18 7 344 353 337 340 131 103 91 103 18 342 350 335 341 2 7 334 324 340 46 285
359 360 358 359 359 359 358 357 357 357 348 346 335 306 19 267 287 1 2 355 77 133 248 39 347 334 323 348 343 312 316 333 142 108 119 114 253 217 248 269 299 333 330 331 342 10 306
352 357 359 357 359 2 1 360 0 0 0 5 352 356 7 332 341 353 342 339 328 326 102 60 262 309 14 27 344 348 359 347 1 133 316 138 252 271 283 315 329 319 310 310 311 289 313
346 351 355 356 357 1 4 4 5 8 13 26 18 356 337 305 310 311 263 309 305 28 29 357 345 350 18 32 53 329 350 348 301 337 347 332 311 334 327 321 314 311 308 297 290 291 297
339 342 348 353 355 358 3 7 8 13 25 57 3 336 322 293 308 303 20 9 354 16 348 342 12 8 340 350 353 331 303 287 273 275 280 287 294 338 294 312 314 324 292 306 295 311 325
332 334 338 343 352 356 358 3 9 15 22 25 11 358 307 299 321 339 358 331 335 0 345 322 319 319 305 330 324 302 280 267 253 245 231 234 243 219 251 293 285 253 276 293 293 317 41
325 327 330 333 339 351 356 357 0 8 10 8 21 10 337 304 319 345 354 353 347 328 291 266 266 259 298 331 324 313 298 277 259 243 210 212 197 225 202 232 265 299 281 336 333 1 87
301 313 320 323 327 336 346 355 354 356 5 16 33 3 353 308 9 335 341 353 355 342 335 338 3 299 51 334 269 252 280 290 301 322 240 241 192 149 251 228 254 261 291 295 285 245 98
288 290 302 309 317 325 332 341 352 350 357 4 27 8 358 296 260 353 328 313 311 327 300 313 353 334 297 287 284 270 276 289 286 290 285 307 339 210 255 264 295 321 359 338 47 329 11
282 277 280 288 299 308 318 329 337 348 347 358 42 23 356 304 294 291 324 323 320 321 317 325 343 8 304 338 246 290 276 291 319 333 327 307 312 263 306 330 295 12 22 80 215 340 346
273 273 275 274 280 290 300 314 325 332 346 340 327 317 313 284 265 283 285 276 260 263 274 274 293 324 309 356 340 334 327 295 309 291 339 360 84 270 323 264 342 14 3 1 10 35 23